Location: Esp�n
(42.4593°N, 0.2047°W)
Time: 22:51:00
(UTC+00:00)

GP-B - Pass Details

Date: 07 June 2020
Orbit: 631 x 635 km, 89.8° (Epoch: 11 July)

Event Time Altitude Azimuth Distance (km) Brightness Sun altitude
Rises 02:13:03 0° 350° (N) 2,941 7.3 -17.9°
Reaches altitude 10° 02:15:31 10° 339° (NNW) 2,027 6.2 -17.6°
Maximum altitude 02:19:17 28° 281° (W) 1,201 4.3 -17.2°
Enters shadow 02:20:27 25° 255° (WSW) 1,298 4.3 -17.1°
